User: anonymous   Login
Location: Gairloch Mountain Observatory
(46.1383°N, 60.9640°W)
Time: 22:31:42
(UTC-03:00)
Language:

CENTAUR R/B - Orbit

View from above orbital plane
View from above orbital plane
View from above satellite
View from above satellite

Ground track
Ground track

The orbit data is extracted from the following two-line orbital elements,

1 26906U 01040B   15245.88474112 0.00000060  00000-0  79536-4 0    03
2 26906  63.4635 207.2274 0296500 343.7258  16.2742 13.43961582    04
Epoch (UTC): 02 September 2015 21:14:01
Eccentricity: 0.0296500
inclination: 63.4635°
perigee height: 873 km
apogee height: 1316 km
right ascension of ascending node: 207.2274°
argument of perigee: 343.7258°
revolutions per day: 13.43961582
mean anomaly at epoch: 16.2742°
orbit number at epoch: 0

The dashed part of the orbit path shows where the satellite is in the earth's shadow,  

DLR